Regional Weather Roundup
Issued by NWS Cleveland, OH

Home | Current Version | Previous Version | Graphics & Text | Print | Product List | Glossary On
Versions: 1 2 3 4 5 6 7 8 9 10 11 12 13 14 15 16 17 18 19 20 21 22 23 24 25 26 27 28 29 30 31 32 33 34 35 36 37 38 39 40 41 42 43 44 45 46 47 48 49 50
000
ASUS41 KCLE 181210
RWRCLE
OHIO REGIONAL WEATHER ROUNDUP
NATIONAL WEATHER SERVICE CLEVELAND, OH
700 AM EST WED JAN 18 2017

NOTE: "FAIR" INDICATES FEW OR NO CLOUDS BELOW 12,000 FEET WITH NO
SIGNIFICANT WEATHER AND/OR OBSTRUCTIONS TO VISIBILITY.

OHZ001>008-015>018-024>027-034-035-043-044-181300-
   NORTHWEST OHIO

CITY           SKY/WX    TMP DP  RH WIND       PRES   REMARKS
DEFIANCE       CLOUDY    36  33  89 W7        30.08R FOG
FINDLAY        CLOUDY    37  33  85 W14       30.06R
TOLEDO EXPRESS CLOUDY    35  35 100 W14       30.05R WCI  26
TOLEDO EXEC    CLOUDY    37  35  92 W15       30.06R
LIMA           CLOUDY    36  34  92 W15       30.08R
$$

OHZ009>014-019>023-028>033-038-089-181300-
   NORTHEAST OHIO

CITY           SKY/WX    TMP DP  RH WIND       PRES   REMARKS
CLE-HOPKINS    DRIZZLE   39  35  86 W15       30.05R
CLE-LAKEFRONT  CLOUDY    36  35  96 W12       30.03R
CUY CO. ARPT   LGT RAIN  37  36  93 W20       30.02  FOG
LORAIN-ELYRIA  CLOUDY    37  32  82 W10       30.04R
ASHTABULA      CLOUDY    37  36  96 W15       30.00R FOG
AKRON-CANTON   CLOUDY    40  34  79 W13       30.01R
WOOSTER        CLOUDY    36  34  92 W12       30.04R
MANSFIELD      CLOUDY    35  35 100 W8        30.04R WCI  29
YOUNGSTOWN     DRIZZLE   39  37  92 W7        29.99R
$$

OHZ042-051>053-060>062-070>072-077>081-181300-
  SOUTHWEST OHIO

CITY           SKY/WX    TMP DP  RH WIND       PRES   REMARKS
CINC-COVINGTON DRIZZLE   37  36  96 W10       30.14S FOG
CINC-LUNKEN    CLOUDY    39  36  89 W7        30.17R
HAMILTON       CLOUDY    38  36  92 W8        30.16R
DAYTON         CLOUDY    36  33  89 W14       30.12R
WRIGHT-PAT AFB CLOUDY    37  34  90 W9        30.12R
DAYTON GENERAL CLOUDY    37  33  85 W9        30.12R
WILMINGTON     CLOUDY    36  34  92 NW10      30.12R
$$

OHZ036-037-039>041-045>050-054>059-063>069-073>076-082>088-181300-
  CENTRAL AND SOUTHEAST OHIO

CITY           SKY/WX    TMP DP  RH WIND       PRES   REMARKS
COLUMBUS       CLOUDY    39  34  82 W12       30.09R
OSU AIRPORT    CLOUDY    37  35  92 W12       30.09R
BOLTON FIELD   CLOUDY    36  34  92 W7        30.10R
RICKENBACK AFB   N/A     38  34  85 NW10      30.10R
NEWARK         CLOUDY    39  33  79 W7        30.07R
MARION         CLOUDY    36  33  89 W9        30.07R
LANCASTER      CLOUDY    40  35  83 NW9       30.09S
ZANESVILLE     CLOUDY    39  35  86 W12G21    30.07R
NEW PHILLY     NOT AVBL
$$




USA.gov is the U.S. government's official web portal to all federal, state and local government web resources and services.